Regional Weather Roundup
Issued by NWS Sioux Falls, SD

Home | Current Version | Previous Version | Text Only | Print | Product List | Glossary On
Versions: 1 2 3 4 5 6 7 8 9 10 11 12 13 14 15 16 17 18 19 20 21 22 23 24 25 26 27 28 29 30 31 32 33 34 35 36 37 38 39 40 41 42 43 44 45 46 47 48 49 50
000
ASUS43 KFSD 291410
RWRFSD

WEATHER ROUNDUP FOR SE SOUTH DAKOTA/SW MINNESOTA/NW IOWA
NATIONAL WEATHER SERVICE SIOUX FALLS SD
900 AM CDT WED MAR 29 2017

NOTE: "FAIR" INDICATES FEW OR NO CLOUDS BELOW 12,000 FEET WITH NO
SIGNIFICANT WEATHER AND OR OBSTRUCTIONS TO VISIBILITY.


SDZ038>040-050-052>070-291500-
SOUTHEAST SOUTH DAKOTA

CITY           SKY/WX    TMP DP  RH WIND       PRES   REMARKS
BROOKINGS      CLOUDY    47  38  71 E7        30.14F
CHAMBERLAIN    CLOUDY    45  44  96 N5        30.12F
HURON          CLOUDY    44  38  79 NE3       30.15R
MADISON        FAIR      41  41 100 E8        30.14S
MITCHELL       PTSUNNY   45  40  82 E8        30.14S
SIOUX FALLS    CLOUDY    45  40  82 E7        30.15R
WINNER         CLOUDY    44  42  93 N7        30.12F FOG
YANKTON        CLOUDY    45  41  87 NE12      30.11S
$$

MNZ071-072-080-081-089-090-097-098-291500-
SOUTHWEST MINNESOTA

CITY           SKY/WX    TMP DP  RH WIND       PRES   REMARKS
FAIRMONT       CLOUDY    43  38  82 E7        30.19R
JACKSON        CLOUDY    41  37  87 E3        30.19R
LUVERNE        CLOUDY    41  36  81 NE6       30.16S
MARSHALL       CLOUDY    40  35  83 N3        30.19S
MONTEVIDEO     CLOUDY    39  34  81 SE5       30.19S
PIPESTONE      CLOUDY    45  36  70 E3        30.15S
REDWOOD FALLS  CLOUDY    44  34  67 E5        30.19R
TRACY          CLOUDY    43  37  80 CALM      30.18S
WINDOM         CLOUDY    43  39  87 E5        30.18R
WORTHINGTON    CLOUDY    41  39  93 E7        30.18R
$$

IAZ001>003-012>014-020>022-031-032-NEZ013-014-SDZ071-291500-
NORTHWEST IOWA

CITY           SKY/WX    TMP DP  RH WIND       PRES   REMARKS
CHEROKEE       LGT RAIN  43  43  99 NE9       30.12F
DENISON        CLOUDY    43  39  87 E16G23    30.06F
ESTHERVILLE    CLOUDY    41  40  96 NE7       30.17R
LE MARS        CLOUDY    45  43  93 NE9       30.13S FOG
ORANGE CITY    LGT RAIN  43  43 100 E8        30.13F
SHELDON        CLOUDY    45  41  87 E10       30.13F
SIOUX CITY     LGT RAIN  45  44  97 E13       30.10S
SPENCER        RAIN      44  40  85 E10       30.16R FOG
STORM LAKE     CLOUDY    43  41  93 E14       30.10F
$$

ABBREVIATIONS USED IN REMARKS
   TC - TEMPERATURE IN CELSIUS
  WCI - WIND CHILL INDEX
   HX - HEAT INDEX
  VSB - VISIBILITY




USA.gov is the U.S. government's official web portal to all federal, state and local government web resources and services.